Jackson, KY

5:37 AM EDT on October 24, 2017 (GMT -0400)
Carroll

Weather History for KJKL - May, 2013

Change the Weather History Date:

Friday, May 3, 2013

  Actual Average Record
Temperature  
Mean Temperature 65 °F 62 °F  
Max Temperature 73 °F 72 °F 84 °F (2001)
Min Temperature 56 °F 52 °F 32 °F (2004)
Degree Days  
Heating Degree Days 0 5  
Month to date heating degree days 0 15  
Since 1 July heating degree days 4262 4136  
Cooling Degree Days 0 2  
Month to date cooling degree days 5 6  
Year to date cooling degree days 45 52  
Growing Degree Days 14 (Base 50)    
Moisture  
Dew Point 44 °F    
Average Humidity 51    
Maximum Humidity 77    
Minimum Humidity 25    
Precipitation  
Precipitation 0.00 in 0.16 in 1.61 in (2009)
Month to date precipitation 0.00 0.46  
Year to date precipitation 15.97 15.77  
Snow  
Snow 0.00 in 0.00 in 0.00 in (2002)
Month to date snowfall 0.0 0.0  
Since 1 July snowfall 20.0 23.5  
Snow Depth 0.00 in    
Sea Level Pressure  
Sea Level Pressure 30.06 in    
Wind  
Wind Speed 6 mph (SE)    
Max Wind Speed 16 mph    
Max Gust Speed 24 mph    
Visibility 10 miles    
Events      
T = Trace of Precipitation, MM = Missing Value Source: NWS Daily Summary

Daily Weather History Graph

Daily Weather History Graph

Search for Another Location

Airport or City:

Trip Planner

Search our weather history database for the weather conditions in past years. The results will help you decide how hot, cold, wet, or windy it might be!

Date:

Astronomy

May. 03, 2013 Rise Set
Actual Time 6:35 AM EDT 8:25 PM EDT
Civil Twilight 6:07 AM EDT 8:53 PM EDT
Nautical Twilight 5:32 AM EDT 9:28 PM EDT
Astronomical Twilight 4:56 AM EDT 10:05 PM EDT
Moon 2:51 AM EDT (5/3) 2:25 PM EDT (5/3)
Length of Visible Light 14h 46m
Length of Day
13h 50m
Last Quarter, 37% of the Moon is Illuminated
May 3
Last Quarter
May 9
New
May 18
First Quarter
May 25
Full
May 31
Last Quarter

Hourly Weather History & Observations

Time (EDT) Temp. Dew Point Humidity Pressure Visibility Wind Dir Wind Speed Gust Speed Precip Events Conditions
12:53 AM 63.0 °F 50.0 °F 63% 30.12 in 10.0 mi SE 4.6 mph - N/A   Clear
1:53 AM 61.0 °F 48.9 °F 64% 30.11 in 10.0 mi SE 5.8 mph - N/A   Clear
2:53 AM 60.1 °F 48.9 °F 67% 30.10 in 10.0 mi Variable 5.8 mph - N/A   Clear
3:53 AM 57.9 °F 48.9 °F 72% 30.09 in 10.0 mi SE 4.6 mph - N/A   Clear
4:53 AM 57.9 °F 48.9 °F 72% 30.09 in 10.0 mi ESE 4.6 mph - N/A   Clear
5:53 AM 57.0 °F 48.0 °F 72% 30.09 in 10.0 mi ESE 4.6 mph - N/A   Clear
6:53 AM 55.9 °F 48.0 °F 75% 30.10 in 10.0 mi Variable 4.6 mph - N/A   Clear
7:53 AM 57.0 °F 48.0 °F 72% 30.10 in 10.0 mi ESE 6.9 mph - N/A   Clear
8:53 AM 60.1 °F 50.0 °F 69% 30.10 in 10.0 mi ESE 4.6 mph - N/A   Clear
9:53 AM 64.0 °F 50.0 °F 60% 30.09 in 10.0 mi SE 5.8 mph - N/A   Clear
10:53 AM 66.0 °F 51.1 °F 59% 30.08 in 10.0 mi Variable 3.5 mph - N/A   Clear
11:53 AM 70.0 °F 52.0 °F 53% 30.07 in 10.0 mi Variable 3.5 mph - N/A   Clear
12:53 PM 69.1 °F 50.0 °F 51% 30.05 in 10.0 mi Variable 5.8 mph - N/A   Mostly Cloudy
1:53 PM 68.0 °F 48.0 °F 49% 30.04 in 10.0 mi ESE 11.5 mph 17.3 mph N/A   Clear
2:53 PM 71.1 °F 48.0 °F 44% 30.03 in 10.0 mi SE 9.2 mph 18.4 mph N/A   Clear
3:53 PM 73.0 °F 43.0 °F 34% 30.01 in 10.0 mi SE 6.9 mph 16.1 mph N/A   Clear
4:53 PM 71.6 °F 35.6 °F 27% 30.03 in 10.0 mi Variable 5.8 mph - N/A   Clear
5:53 PM 69.1 °F 33.1 °F 26% 30.01 in 10.0 mi SE 6.9 mph - N/A   Clear
6:53 PM 69.1 °F 32.0 °F 25% 30.00 in 10.0 mi ESE 9.2 mph 17.3 mph N/A   Clear
7:53 PM 66.9 °F 32.0 °F 27% 30.01 in 10.0 mi SE 8.1 mph - N/A   Clear
8:53 PM 64.9 °F 34.0 °F 32% 30.01 in 10.0 mi SE 5.8 mph - N/A   Clear
9:53 PM 64.0 °F 32.0 °F 30% 30.02 in 10.0 mi Variable 6.9 mph - N/A   Clear
10:53 PM 63.0 °F 37.0 °F 38% 30.02 in 10.0 mi SE 8.1 mph 19.6 mph N/A   Clear
11:53 PM 62.1 °F 39.9 °F 44% 30.01 in 10.0 mi Variable 6.9 mph - N/A   Clear